Fort Morgan, CO

11:15 PM MDT on May 23, 2017 (GMT -0600)
Fort Morgan

Weather History for KFMM - October, 2012

Change the Weather History Date:

Thursday, October 4, 2012

  Actual Average (KAKO) Record (KAKO)
Temperature  
Mean Temperature 40 °F -  
Max Temperature 50 °F 68 °F 89 °F (1963)
Min Temperature 31 °F 40 °F 25 °F (1953)
Degree Days  
Heating Degree Days 24    
Moisture  
Dew Point 24 °F    
Average Humidity 55    
Maximum Humidity 76    
Minimum Humidity 32    
Precipitation  
Precipitation 0.00 in - - ()
Sea Level Pressure  
Sea Level Pressure 30.32 in    
Wind  
Wind Speed 9 mph ()    
Max Wind Speed 20 mph    
Max Gust Speed 23 mph    
Visibility 10.0 miles    
Events      
Averages and records for this station are not official NWS values.
T = Trace of Precipitation, MM = Missing Value Source: Averaged Metar Reports

Daily Weather History Graph

Daily Weather History Graph

Search for Another Location

Airport or City:

Trip Planner

Search our weather history database for the weather conditions in past years. The results will help you decide how hot, cold, wet, or windy it might be!

Date:

Astronomy

Oct. 04, 2012 Rise Set
Actual Time 6:55 AM MDT 6:31 PM MDT
Civil Twilight 6:27 AM MDT 6:58 PM MDT
Nautical Twilight 5:56 AM MDT 7:30 PM MDT
Astronomical Twilight 5:24 AM MDT 8:01 PM MDT
Moon 9:08 PM MDT (10/4) 11:14 AM MDT (10/4)
Length of Visible Light 12h 30m
Length of Day
11h 36m
Waning Gibbous, 81% of the Moon is Illuminated
Oct 4
Waning Gibbous
Oct 8
Last Quarter
Oct 15
New
Oct 21
First Quarter
Oct 29
Full

Hourly Weather History & Observations

Time (MDT) Temp. Windchill Dew Point Humidity Pressure Visibility Wind Dir Wind Speed Gust Speed Precip Events Conditions
12:15 AM 36.5 °F 28.7 °F 26.6 °F 67% 30.35 in 10.0 mi NNW 11.5 mph 17.3 mph N/A   Scattered Clouds
12:35 AM 36.0 °F 28.5 °F 26.6 °F 69% 30.36 in 10.0 mi North 10.4 mph 16.1 mph N/A   Clear
12:55 AM 35.6 °F 27.5 °F 26.6 °F 70% 30.35 in 10.0 mi North 11.5 mph - N/A   Clear
1:15 AM 35.8 °F 27.3 °F 26.6 °F 69% 30.35 in 10.0 mi NNW 12.7 mph 17.3 mph N/A   Scattered Clouds
1:35 AM 36.1 °F 28.2 °F 27.0 °F 69% 30.36 in 10.0 mi NNW 11.5 mph 18.4 mph N/A   Mostly Cloudy
1:55 AM 36.7 °F 27.6 °F 27.0 °F 68% 30.36 in 10.0 mi NNW 15.0 mph - N/A   Overcast
2:15 AM 35.2 °F 27.6 °F 26.4 °F 70% 30.37 in 10.0 mi NNW 10.4 mph - N/A   Scattered Clouds
2:35 AM 36.1 °F 29.9 °F 26.6 °F 68% 30.37 in 10.0 mi NNW 8.1 mph 16.1 mph N/A   Mostly Cloudy
2:55 AM 36.9 °F 30.1 °F 26.2 °F 65% 30.36 in 10.0 mi NW 9.2 mph - N/A   Overcast
3:15 AM 37.0 °F 28.1 °F 26.2 °F 65% 30.36 in 10.0 mi NW 15.0 mph 19.6 mph N/A   Overcast
3:35 AM 37.0 °F 28.9 °F 26.2 °F 65% 30.36 in 10.0 mi NNW 12.7 mph - N/A   Overcast
3:55 AM 37.4 °F 29.3 °F 26.2 °F 64% 30.36 in 10.0 mi NW 12.7 mph 16.1 mph N/A   Overcast
4:15 AM 37.4 °F 29.8 °F 25.9 °F 63% 30.36 in 10.0 mi NNW 11.5 mph 16.1 mph N/A   Overcast
4:35 AM 37.4 °F 27.8 °F 25.3 °F 62% 30.36 in 10.0 mi NNW 17.3 mph 21.9 mph N/A   Overcast
4:55 AM 36.9 °F 27.5 °F 25.2 °F 63% 30.36 in 10.0 mi North 16.1 mph 21.9 mph N/A   Overcast
5:15 AM 36.5 °F 26.0 °F 24.8 °F 63% 30.36 in 10.0 mi North 19.6 mph - N/A   Overcast
5:35 AM 35.6 °F 25.5 °F 25.5 °F 67% 30.35 in 10.0 mi North 17.3 mph 23.0 mph N/A   Overcast
5:55 AM 34.3 °F 24.6 °F 25.7 °F 71% 30.35 in 10.0 mi NNW 15.0 mph - N/A   Scattered Clouds
6:15 AM 32.9 °F 27.5 °F 25.3 °F 74% 30.37 in 10.0 mi NW 5.8 mph - N/A   Scattered Clouds
6:35 AM 31.8 °F 28.5 °F 24.8 °F 75% 30.37 in 10.0 mi NNW 3.5 mph - N/A   Clear
6:55 AM 31.6 °F 27.0 °F 24.8 °F 76% 30.37 in 10.0 mi NW 4.6 mph - N/A   Clear
7:15 AM 32.0 °F 27.5 °F 25.0 °F 75% 30.37 in 10.0 mi North 4.6 mph - N/A   Clear
7:35 AM 33.4 °F 27.3 °F 26.1 °F 74% 30.37 in 10.0 mi North 6.9 mph - N/A   Clear
7:55 AM 35.6 °F 29.2 °F 26.2 °F 69% 30.37 in 10.0 mi North 8.1 mph - N/A   Clear
8:15 AM 36.9 °F 31.4 °F 26.1 °F 65% 30.37 in 10.0 mi North 6.9 mph - N/A   Scattered Clouds
8:55 AM 38.3 °F 33.2 °F 25.3 °F 60% 30.38 in 10.0 mi North 6.9 mph - N/A   Overcast
9:15 AM 38.3 °F 33.2 °F 25.2 °F 59% 30.38 in 10.0 mi ENE 6.9 mph - N/A   Overcast
9:35 AM 38.3 °F 33.9 °F 24.4 °F 57% 30.38 in 10.0 mi NNE 5.8 mph - N/A   Overcast
9:55 AM 39.2 °F 33.6 °F 23.9 °F 54% 30.38 in 10.0 mi NE 8.1 mph - N/A   Overcast
10:15 AM 39.9 °F 34.5 °F 24.3 °F 54% 30.39 in 10.0 mi NE 8.1 mph - N/A   Overcast
10:35 AM 40.1 °F 35.3 °F 24.3 °F 53% 30.38 in 10.0 mi ENE 6.9 mph - N/A   Overcast
10:55 AM 41.0 °F 36.4 °F 24.3 °F 51% 30.37 in 10.0 mi ENE 6.9 mph - N/A   Overcast
11:15 AM 41.2 °F 36.0 °F 23.9 °F 50% 30.37 in 10.0 mi NE 8.1 mph - N/A   Overcast
11:35 AM 41.5 °F 37.8 °F 23.4 °F 49% 30.37 in 10.0 mi North 5.8 mph - N/A   Overcast
11:55 AM 42.1 °F 37.7 °F 23.0 °F 47% 30.37 in 10.0 mi ENE 6.9 mph - N/A   Overcast
12:15 PM 42.8 °F 39.3 °F 22.5 °F 45% 30.36 in 10.0 mi NE 5.8 mph - N/A   Overcast
12:35 PM 42.8 °F 40.1 °F 22.5 °F 45% 30.35 in 10.0 mi ENE 4.6 mph - N/A   Overcast
12:55 PM 44.6 °F 40.7 °F 22.1 °F 41% 30.34 in 10.0 mi East 6.9 mph - N/A   Overcast
1:15 PM 47.3 °F - 21.4 °F 36% 30.33 in 10.0 mi North 5.8 mph - N/A   Overcast
1:35 PM 46.8 °F - 20.8 °F 36% 30.32 in 10.0 mi NNW 4.6 mph - N/A   Overcast
1:55 PM 46.9 °F - 20.3 °F 35% 30.30 in 10.0 mi Calm Calm - N/A   Overcast
2:15 PM 47.7 °F - 20.5 °F 34% 30.29 in 10.0 mi Calm Calm - N/A   Scattered Clouds
2:35 PM 49.5 °F - 21.2 °F 33% 30.29 in 10.0 mi East 3.5 mph - N/A   Clear
2:55 PM 50.0 °F - 21.4 °F 32% 30.28 in 10.0 mi NNE 3.5 mph - N/A   Clear
3:15 PM 49.8 °F - 21.6 °F 33% 30.28 in 10.0 mi ENE 4.6 mph - N/A   Clear
3:35 PM 50.0 °F - 21.4 °F 32% 30.28 in 10.0 mi East 6.9 mph - N/A   Clear
3:55 PM 50.5 °F - 21.7 °F 32% 30.27 in 10.0 mi East 8.1 mph - N/A   Clear
4:15 PM 50.7 °F - 22.1 °F 33% 30.27 in 10.0 mi East 5.8 mph - N/A   Clear
4:35 PM 50.2 °F - 21.9 °F 33% 30.26 in 10.0 mi Calm Calm - N/A   Clear
4:55 PM 49.5 °F - 22.1 °F 34% 30.26 in 10.0 mi SSE 6.9 mph - N/A   Clear
5:15 PM 49.1 °F - 22.1 °F 35% 30.25 in 10.0 mi SE 3.5 mph - N/A   Clear
5:35 PM 47.7 °F - 22.5 °F 37% 30.25 in 10.0 mi Calm Calm - N/A   Clear
5:55 PM 47.8 °F - 22.5 °F 37% 30.25 in 10.0 mi ESE 4.6 mph - N/A   Clear
6:15 PM 45.5 °F 42.5 °F 22.1 °F 40% 30.25 in 10.0 mi ENE 5.8 mph - N/A   Clear
6:35 PM 42.8 °F 40.1 °F 22.8 °F 45% 30.26 in 10.0 mi NE 4.6 mph - N/A   Clear
6:55 PM 40.5 °F 35.8 °F 22.1 °F 48% 30.26 in 10.0 mi NE 6.9 mph - N/A   Clear
7:15 PM 38.5 °F 33.4 °F 22.6 °F 53% 30.26 in 10.0 mi NE 6.9 mph - N/A   Clear
7:35 PM 37.0 °F 31.6 °F 22.6 °F 56% 30.26 in 10.0 mi NE 6.9 mph - N/A   Clear
8:15 PM 36.7 °F 31.2 °F 23.0 °F 58% 30.26 in 10.0 mi NE 6.9 mph - N/A   Clear
8:35 PM 37.8 °F 31.3 °F 23.5 °F 57% 30.26 in 10.0 mi ENE 9.2 mph - N/A   Clear
8:55 PM 38.5 °F 32.7 °F 23.0 °F 54% 30.27 in 10.0 mi ENE 8.1 mph - N/A   Clear
9:15 PM 37.6 °F 31.6 °F 23.0 °F 56% 30.26 in 10.0 mi ENE 8.1 mph - N/A   Clear
9:35 PM 36.7 °F 29.9 °F 22.8 °F 57% 30.26 in 10.0 mi ENE 9.2 mph - N/A   Clear
9:55 PM 36.0 °F 28.5 °F 22.6 °F 58% 30.26 in 10.0 mi ENE 10.4 mph - N/A   Clear
10:15 PM 35.6 °F 27.5 °F 22.1 °F 58% 30.26 in 10.0 mi ENE 11.5 mph - N/A   Clear
10:35 PM 34.7 °F 26.9 °F 22.1 °F 60% 30.26 in 10.0 mi ENE 10.4 mph - N/A   Clear
10:55 PM 33.8 °F 26.4 °F 22.1 °F 62% 30.26 in 10.0 mi ENE 9.2 mph - N/A   Clear
11:15 PM 32.9 °F 25.3 °F 22.1 °F 65% 30.27 in 10.0 mi ENE 9.2 mph - N/A   Clear
11:35 PM 32.0 °F 24.8 °F 22.1 °F 67% 30.26 in 10.0 mi ENE 8.1 mph - N/A   Clear
11:55 PM 32.0 °F 24.8 °F 22.1 °F 67% 30.26 in 10.0 mi ENE 8.1 mph - N/A   Clear